When you browse on this site, cookies collect data to enhance your experience and personalize the content and advertising you see.
Visit our Privacy Policy to learn more. By continuing to use the site, you agree to this use of cookies and data.
  • In Latvia
  • List of Countries
  • For 7 days
  • Water Temperature
  • Satellite Maps
  • Weather Map
  • Weather Widgets
  • user-avatar
    Login

    Hourly Weather Baden

    Today, 19 July, Friday

    Time Temperature Precipitation Wind Pressure Humidity
    00:00 +16°C° 0.3 mm 0 mps 723 mmHg 84%
    01:00 +16°C° 0 mm 0 mps 723 mmHg 90%
    02:00 +15°C° 0.2 mm 0 mps 723 mmHg 91%
    03:00 +15°C° 0.2 mm 0 mps 723 mmHg 92%
    04:00 +15°C° 0.2 mm 0 mps 723 mmHg 92%
    05:00 +15°C° 0 mm 0 mps 723 mmHg 92%
    06:00 +16°C° 0 mm 0 mps 724 mmHg 91%
    07:00 +18°C° 0 mm 0 mps 724 mmHg 86%
    08:00 +22°C° 0 mm 1 mps 724 mmHg 76%
    09:00 +24°C° 0 mm 1 mps 724 mmHg 66%
    10:00 +26°C° 0 mm 1 mps 724 mmHg 56%
    11:00 +27°C° 0 mm 2 mps 724 mmHg 52%
    12:00 +27°C° 0 mm 2 mps 724 mmHg 49%
    13:00 +28°C° 0 mm 3 mps 724 mmHg 45%
    14:00 +28°C° 0 mm 3 mps 724 mmHg 46%
    15:00 +28°C° 0 mm 3 mps 724 mmHg 47%
    16:00 +28°C° 0 mm 3 mps 724 mmHg 48%
    17:00 +27°C° 0 mm 2 mps 724 mmHg 56%
    18:00 +26°C° 0 mm 2 mps 724 mmHg 63%
    19:00 +25°C° 0 mm 1 mps 724 mmHg 70%
    20:00 +23°C° 0 mm 1 mps 724 mmHg 75%
    21:00 +21°C° 0 mm 1 mps 724 mmHg 80%
    22:00 +17°C° 0 mm 0 mps 724 mmHg 85%
    23:00 +17°C° 0 mm 0 mps 724 mmHg 87%

    Tomorrow, 20 July, Saturday

    Time Temperature Precipitation Wind Pressure Humidity
    00:00 +16°C° 0 mm 0 mps 724 mmHg 89%
    01:00 +16°C° 0 mm 0 mps 724 mmHg 92%
    02:00 +15°C° 0 mm 0 mps 723 mmHg 92%
    03:00 +15°C° 0 mm 0 mps 723 mmHg 93%
    04:00 +15°C° 0 mm 0 mps 723 mmHg 93%
    05:00 +16°C° 0 mm 0 mps 723 mmHg 90%
    06:00 +17°C° 0 mm 0 mps 723 mmHg 86%
    07:00 +18°C° 0 mm 0 mps 723 mmHg 82%
    08:00 +21°C° 0 mm 0 mps 724 mmHg 73%
    09:00 +25°C° 0 mm 1 mps 724 mmHg 63%
    10:00 +28°C° 0 mm 1 mps 724 mmHg 54%
    11:00 +29°C° 0 mm 2 mps 724 mmHg 48%
    12:00 +30°C° 0 mm 2 mps 724 mmHg 43%
    13:00 +31°C° 0 mm 3 mps 724 mmHg 38%
    14:00 +33°C° 0 mm 4 mps 724 mmHg 37%
    15:00 +33°C° 0 mm 4 mps 724 mmHg 37%
    16:00 +33°C° 0 mm 4 mps 724 mmHg 37%
    17:00 +30°C° 0 mm 3 mps 724 mmHg 46%
    18:00 +28°C° 0 mm 2 mps 724 mmHg 56%
    19:00 +26°C° 0 mm 1 mps 725 mmHg 65%
    20:00 +24°C° 0.4 mm 1 mps 725 mmHg 72%
    21:00 +23°C° 0.4 mm 1 mps 725 mmHg 78%
    22:00 +21°C° 0.4 mm 1 mps 726 mmHg 85%
    23:00 +20°C° 0.2 mm 1 mps 726 mmHg 87%

    Day after tomorrow, 21 July, Sunday

    Time Temperature Precipitation Wind Pressure Humidity
    00:00 +20°C° 0.2 mm 1 mps 726 mmHg 89%
    01:00 +19°C° 0.2 mm 1 mps 726 mmHg 91%
    02:00 +19°C° 0.6 mm 1 mps 726 mmHg 92%
    03:00 +19°C° 0.6 mm 1 mps 726 mmHg 94%
    04:00 +19°C° 0.6 mm 1 mps 726 mmHg 95%
    05:00 +19°C° 0.4 mm 1 mps 726 mmHg 95%
    06:00 +20°C° 0.4 mm 1 mps 727 mmHg 94%
    07:00 +18°C° 0.4 mm 0 mps 727 mmHg 93%
    08:00 +22°C° 0.3 mm 1 mps 727 mmHg 87%
    09:00 +24°C° 0.3 mm 1 mps 728 mmHg 80%
    10:00 +26°C° 0.3 mm 2 mps 728 mmHg 73%
    11:00 +27°C° 0.2 mm 2 mps 728 mmHg 68%
    12:00 +28°C° 0.2 mm 3 mps 729 mmHg 62%
    13:00 +29°C° 0.2 mm 3 mps 729 mmHg 56%
    14:00 +29°C° 0.2 mm 3 mps 729 mmHg 57%
    15:00 +29°C° 0.2 mm 3 mps 729 mmHg 57%
    16:00 +29°C° 0.2 mm 2 mps 729 mmHg 57%
    17:00 +28°C° 0.1 mm 2 mps 729 mmHg 62%
    18:00 +27°C° 0.1 mm 1 mps 729 mmHg 67%
    19:00 +25°C° 0.1 mm 1 mps 729 mmHg 72%
    20:00 +24°C° 0.2 mm 1 mps 729 mmHg 77%
    21:00 +22°C° 0.2 mm 1 mps 729 mmHg 81%
    22:00 +20°C° 0.2 mm 1 mps 730 mmHg 86%
    23:00 +20°C° 0 mm 1 mps 729 mmHg 88%

    22 July, Monday

    Time Temperature Precipitation Wind Pressure Humidity
    00:00 +19°C° 0 mm 1 mps 729 mmHg 89%
    01:00 +19°C° 0 mm 1 mps 729 mmHg 91%
    02:00 +16°C° 0 mm 0 mps 729 mmHg 92%
    03:00 +16°C° 0 mm 0 mps 729 mmHg 92%
    04:00 +16°C° 0 mm 0 mps 729 mmHg 93%
    05:00 +17°C° 0 mm 0 mps 729 mmHg 90%
    06:00 +17°C° 0 mm 0 mps 729 mmHg 88%
    07:00 +18°C° 0 mm 0 mps 730 mmHg 85%
    08:00 +23°C° 0 mm 1 mps 730 mmHg 77%
    09:00 +25°C° 0 mm 1 mps 730 mmHg 68%
    10:00 +27°C° 0 mm 1 mps 730 mmHg 60%
    11:00 +29°C° 0 mm 1 mps 730 mmHg 55%
    12:00 +30°C° 0 mm 1 mps 730 mmHg 50%
    13:00 +31°C° 0 mm 1 mps 730 mmHg 46%
    14:00 +32°C° 0 mm 1 mps 730 mmHg 44%
    15:00 +32°C° 0 mm 1 mps 729 mmHg 43%
    16:00 +32°C° 0 mm 1 mps 729 mmHg 42%
    17:00 +30°C° 0 mm 2 mps 729 mmHg 51%
    18:00 +29°C° 0 mm 2 mps 729 mmHg 60%
    19:00 +27°C° 0 mm 2 mps 729 mmHg 69%
    20:00 +25°C° 0 mm 2 mps 729 mmHg 75%
    21:00 +23°C° 0 mm 2 mps 729 mmHg 81%
    22:00 +22°C° 0 mm 1 mps 729 mmHg 88%
    23:00 +21°C° 0 mm 1 mps 729 mmHg 89%

    23 July, Tuesday

    Time Temperature Precipitation Wind Pressure Humidity
    00:00 +20°C° 0 mm 1 mps 728 mmHg 90%
    01:00 +19°C° 0 mm 1 mps 728 mmHg 91%
    02:00 +19°C° 0 mm 1 mps 728 mmHg 92%
    03:00 +19°C° 0 mm 1 mps 728 mmHg 92%
    04:00 +18°C° 0 mm 1 mps 728 mmHg 92%
    05:00 +19°C° 0 mm 1 mps 728 mmHg 89%
    06:00 +20°C° 0 mm 1 mps 728 mmHg 86%
    07:00 +21°C° 0 mm 1 mps 728 mmHg 83%
    08:00 +23°C° 0 mm 1 mps 728 mmHg 75%
    09:00 +25°C° 0 mm 1 mps 728 mmHg 68%
    10:00 +27°C° 0 mm 2 mps 728 mmHg 60%
    11:00 +29°C° 0 mm 2 mps 728 mmHg 54%
    12:00 +30°C° 0 mm 2 mps 728 mmHg 48%
    13:00 +32°C° 0 mm 2 mps 728 mmHg 42%
    14:00 +32°C° 0 mm 2 mps 727 mmHg 42%
    15:00 +32°C° 0 mm 2 mps 727 mmHg 42%
    16:00 +33°C° 0 mm 3 mps 727 mmHg 43%
    17:00 +31°C° 0 mm 3 mps 727 mmHg 51%
    18:00 +29°C° 0 mm 2 mps 727 mmHg 59%
    19:00 +27°C° 0 mm 2 mps 727 mmHg 67%
    20:00 +25°C° 0 mm 2 mps 727 mmHg 74%
    21:00 +23°C° 0 mm 1 mps 727 mmHg 81%
    22:00 +21°C° 0 mm 1 mps 727 mmHg 88%
    23:00 +21°C° 0 mm 1 mps 727 mmHg 89%

    24 July, Wednesday

    Time Temperature Precipitation Wind Pressure Humidity
    00:00 +20°C° 0 mm 1 mps 727 mmHg 90%
    01:00 +17°C° 0 mm 0 mps 727 mmHg 91%
    02:00 +17°C° 0 mm 0 mps 726 mmHg 91%
    03:00 +17°C° 0 mm 0 mps 726 mmHg 92%
    04:00 +18°C° 0 mm 1 mps 726 mmHg 92%
    05:00 +19°C° 0 mm 1 mps 726 mmHg 89%
    06:00 +18°C° 0 mm 0 mps 726 mmHg 86%
    07:00 +19°C° 0 mm 0 mps 726 mmHg 83%
    08:00 +23°C° 0 mm 1 mps 726 mmHg 74%
    09:00 +26°C° 0 mm 1 mps 727 mmHg 65%
    10:00 +28°C° 0 mm 1 mps 727 mmHg 56%
    11:00 +30°C° 0 mm 1 mps 727 mmHg 50%
    12:00 +31°C° 0 mm 2 mps 727 mmHg 44%
    13:00 +32°C° 0 mm 2 mps 727 mmHg 38%
    14:00 +34°C° 0 mm 2 mps 726 mmHg 39%
    15:00 +34°C° 0 mm 2 mps 726 mmHg 39%
    16:00 +34°C° 0 mm 2 mps 726 mmHg 40%
    17:00 +31°C° 0 mm 2 mps 726 mmHg 50%
    18:00 +29°C° 0 mm 2 mps 726 mmHg 59%
    19:00 +28°C° 0 mm 2 mps 726 mmHg 69%
    20:00 +26°C° 0 mm 2 mps 726 mmHg 75%
    21:00 +24°C° 0 mm 2 mps 726 mmHg 82%
    22:00 +22°C° 0 mm 1 mps 726 mmHg 88%
    23:00 +21°C° 0 mm 1 mps 726 mmHg 89%
    Show more